Tracking 19193 objects as of 22-Jun-2018
HD Live streaming from Space Station
objects crossing your sky now

SUPERBIRD B1

Track SUPERBIRD B1 now!
SUPERBIRD B1 is classified as:


NORAD ID: 21893
Int'l Code: 1992-010A
Perigee: 36,084.6 km
Apogee: 36,193.4 km
Inclination: 12.9 °
Period: 1,453.8 minutes
Semi major axis: 42509 km
RCS: 7.9433 m2 (large)
Launch date: February 26, 1992
Source: Japan (JPN)
Launch site: FRENCH GUIANA (FRGUI)
aabbcc
Your satellite tracking list
Your tracking list is empty




NASA's NSSDC Master Catalog

Two Line Element Set (TLE):
1 21893U 92010A   18172.58553373 -.00000079 +00000-0 +00000-0 0  9990
2 21893 012.9273 028.6161 0012794 048.2739 137.6516 00.99052796095425
Source of the keplerian elements: AFSPC